Location: Estes Park
(40.3770°N, 105.5210°W)
Time: 17:13:27
(UTC-06:00)

N. Korean satellite - Pass Details

Date: 16 October 2017
Orbit: 459 x 517 km, 97.2° (Epoch: 21 October)

Event Time Altitude Azimuth Distance (km) Brightness Sun altitude
Rises 19:44:19 0° 193° (SSW) 2,534 10.4 -16.8°
Reaches altitude 10° 19:46:38 10° 207° (SSW) 1,648 9.6 -17.2°
Maximum altitude 19:49:36 25° 264° (W) 1,001 9.0 -17.8°
Drops below altitude 10° 19:52:32 10° 321° (NW) 1,635 9.8 -18.4°
Sets 19:54:51 0° 335° (NNW) 2,508 10.6 -18.8°
